This is the latest recevied weather packets stored in our database for station/object SQ7RAF-15. If no packets are shown the sender has not sent any weather packets the latest 10 day(s).
| Time | Temp. | Humidity | Pressure | Rain* | Wind** | Luminosity | Snow |
|---|---|---|---|---|---|---|---|
| 1777723242 | 24.44° C | 34% | 1023.1 hPa | 0 mm | - | 602 W/m² | - |
| 1777722921 | 24.44° C | 34% | 1023.2 hPa | 0 mm | - | 591 W/m² | - |
| 1777722634 | 23.89° C | 34% | 1023.2 hPa | 0 mm | - | 591 W/m² | - |
| 1777722345 | 23.89° C | 34% | 1023.3 hPa | 0 mm | - | 604 W/m² | - |
| 1777722025 | 23.33° C | 35% | 1023.3 hPa | 0 mm | - | 601 W/m² | - |
| 1777721737 | 23.89° C | 35% | 1023.5 hPa | 0 mm | - | 583 W/m² | - |
| 1777721418 | 23.89° C | 34% | 1023.4 hPa | 0 mm | - | 600 W/m² | - |
| 1777721130 | 23.89° C | 34% | 1023.5 hPa | 0 mm | - | 600 W/m² | - |
| 1777720842 | 23.89° C | 34% | 1023.6 hPa | 0 mm | - | 608 W/m² | - |
| 1777720522 | 23.89° C | 34% | 1023.6 hPa | 0 mm | - | 570 W/m² | - |
| 1777720234 | 23.89° C | 34% | 1023.6 hPa | 0 mm | - | 580 W/m² | - |
| 1777719946 | 23.33° C | 35% | 1023.7 hPa | 0 mm | - | 587 W/m² | - |
| 1777719625 | 23.33° C | 35% | 1023.8 hPa | 0 mm | - | 592 W/m² | - |
| 1777719338 | 23.33° C | 36% | 1023.8 hPa | 0 mm | - | 585 W/m² | - |
| 1777719018 | 22.78° C | 35% | 1023.9 hPa | 0 mm | - | 622 W/m² | - |
| 1777718730 | 23.33° C | 35% | 1024 hPa | 0 mm | - | 630 W/m² | - |
| 1777718442 | 23.33° C | 35% | 1024 hPa | 0 mm | - | 658 W/m² | - |
| 1777718122 | 22.78° C | 36% | 1024 hPa | 0 mm | - | 656 W/m² | - |
| 1777717833 | 22.78° C | 37% | 1024 hPa | 0 mm | - | 628 W/m² | - |
| 1777717546 | 22.78° C | 37% | 1024.2 hPa | 0 mm | - | 611 W/m² | - |
| 1777717225 | 23.89° C | 36% | 1024.3 hPa | 0 mm | - | 614 W/m² | - |
| 1777716938 | 23.33° C | 36% | 1024.3 hPa | 0 mm | - | 624 W/m² | - |
| 1777716618 | 22.78° C | 37% | 1024.4 hPa | 0 mm | - | 620 W/m² | - |
| 1777716330 | 22.22° C | 37% | 1024.4 hPa | 0 mm | - | 614 W/m² | - |
| 1777716042 | 21.67° C | 38% | 1024.4 hPa | 0 mm | - | 615 W/m² | - |
* Rain latest hour (hover to see other rain measurements)
** Current wind speed in m/s (hover to see current wind gust speed)